TimeCDT,TemperatureF,Dew PointF,Humidity,Sea Level PressureIn,VisibilityMPH,Wind Direction,Wind SpeedMPH,Gust SpeedMPH,PrecipitationIn,Events,Conditions,WindDirDegrees,DateUTC
12:37 AM,35.6,32.0,87,29.55,6.0,ENE,46.0,59.8,0.02,Rain,Light Rain,60,2013-04-11 05:37:00
12:53 AM,37.4,33.8,87,29.79,10.0,ESE,17.3,34.5,0.02,,Overcast,110,2013-04-11 05:53:00
12:56 AM,37.0,33.1,86,29.79,10.0,ESE,23.0,34.5,0.02,,Overcast,110,2013-04-11 05:56:00
1:03 AM,37.4,33.8,87,29.79,10.0,East,26.5,32.2,N/A,,Overcast,100,2013-04-11 06:03:00
1:56 AM,37.9,34.0,86,29.82,10.0,East,20.7,-,N/A,,Overcast,90,2013-04-11 06:56:00
2:56 AM,37.9,34.0,86,29.78,4.0,East,20.7,29.9,0.00,Rain,Light Rain,80,2013-04-11 07:56:00
3:56 AM,37.0,34.0,89,29.76,10.0,East,17.3,32.2,0.00,,Overcast,80,2013-04-11 08:56:00
4:56 AM,37.0,34.0,89,29.73,4.0,East,20.7,29.9,0.01,Rain,Light Rain,80,2013-04-11 09:56:00
5:56 AM,37.0,34.0,89,29.70,2.5,East,23.0,-,0.00,Rain,Light Rain,80,2013-04-11 10:56:00
6:10 AM,37.4,33.8,87,29.69,4.0,East,24.2,29.9,0.00,Rain,Light Rain,90,2013-04-11 11:10:00
6:28 AM,37.4,33.8,87,29.71,2.5,East,19.6,-,0.01,Rain,Light Rain,80,2013-04-11 11:28:00
6:41 AM,35.6,33.8,93,29.71,1.8,East,19.6,26.5,0.02,Rain,Light Rain,80,2013-04-11 11:41:00
6:49 AM,35.6,33.8,93,29.70,2.0,East,19.6,-,0.02,Rain,Light Rain,90,2013-04-11 11:49:00
6:56 AM,36.0,34.0,93,29.71,2.5,East,17.3,-,0.03,Rain,Light Rain,90,2013-04-11 11:56:00
7:18 AM,35.6,33.8,93,29.72,1.5,East,17.3,25.3,0.00,Rain,Light Rain,90,2013-04-11 12:18:00
7:43 AM,35.6,33.8,93,29.72,2.0,East,13.8,-,0.00,Rain,Light Rain,90,2013-04-11 12:43:00
7:56 AM,37.0,34.0,89,29.73,5.0,East,16.1,-,0.00,Rain,Light Rain,80,2013-04-11 12:56:00
8:16 AM,37.4,33.8,87,29.72,2.0,East,20.7,-,0.01,Rain,Light Rain,90,2013-04-11 13:16:00
8:27 AM,37.4,33.8,87,29.72,7.0,East,18.4,25.3,0.01,,Overcast,90,2013-04-11 13:27:00
8:56 AM,37.0,34.0,89,29.72,9.0,East,18.4,26.5,0.01,,Overcast,90,2013-04-11 13:56:00
9:56 AM,37.9,35.1,89,29.69,2.5,East,19.6,-,0.00,Rain,Light Rain,80,2013-04-11 14:56:00
10:28 AM,37.4,35.6,93,29.70,3.0,East,18.4,-,0.00,,Overcast,80,2013-04-11 15:28:00
10:38 AM,37.4,35.6,93,29.70,2.0,East,19.6,-,0.00,,Overcast,90,2013-04-11 15:38:00
10:45 AM,39.2,35.6,87,29.70,1.8,East,17.3,-,0.00,Rain,Light Rain,80,2013-04-11 15:45:00
10:53 AM,39.2,35.6,87,29.70,2.5,East,19.6,-,0.00,Rain,Light Rain,80,2013-04-11 15:53:00
10:56 AM,39.0,36.0,89,29.70,3.0,East,17.3,24.2,0.00,,Overcast,80,2013-04-11 15:56:00
11:56 AM,39.9,36.0,86,29.68,10.0,East,19.6,-,N/A,,Overcast,80,2013-04-11 16:56:00
12:56 PM,39.9,37.0,89,29.67,2.5,East,16.1,-,N/A,,Overcast,80,2013-04-11 17:56:00
1:56 PM,41.0,37.9,89,29.66,2.5,East,13.8,21.9,N/A,,Overcast,80,2013-04-11 18:56:00
2:06 PM,39.2,37.4,93,29.65,3.0,East,15.0,-,N/A,,Overcast,80,2013-04-11 19:06:00
2:24 PM,41.0,37.4,87,29.64,3.0,East,16.1,-,N/A,,Overcast,80,2013-04-11 19:24:00
2:34 PM,41.0,37.4,87,29.65,2.5,East,15.0,-,N/A,,Overcast,80,2013-04-11 19:34:00
2:46 PM,41.0,37.4,87,29.64,5.0,East,18.4,24.2,N/A,,Overcast,90,2013-04-11 19:46:00
2:56 PM,42.1,37.9,85,29.64,9.0,East,13.8,-,N/A,,Overcast,80,2013-04-11 19:56:00
3:04 PM,41.0,37.4,87,29.64,5.0,East,16.1,-,N/A,,Overcast,80,2013-04-11 20:04:00
3:56 PM,41.0,37.0,86,29.62,9.0,East,18.4,-,N/A,,Overcast,90,2013-04-11 20:56:00
4:42 PM,41.0,37.4,87,29.63,2.5,East,15.0,-,0.00,Rain,Light Rain,90,2013-04-11 21:42:00
4:48 PM,41.0,37.4,87,29.63,2.5,East,15.0,-,0.00,Rain,Light Rain,80,2013-04-11 21:48:00
4:52 PM,41.0,37.4,87,29.62,3.0,East,18.4,-,0.00,Rain,Light Rain,80,2013-04-11 21:52:00
4:56 PM,41.0,37.9,89,29.63,3.0,East,19.6,-,0.00,,Overcast,90,2013-04-11 21:56:00
5:03 PM,41.0,37.4,87,29.63,5.0,East,19.6,26.5,N/A,,Overcast,90,2013-04-11 22:03:00
5:11 PM,41.0,37.4,87,29.63,7.0,East,19.6,-,N/A,,Overcast,90,2013-04-11 22:11:00
5:45 PM,41.0,37.4,87,29.62,7.0,East,16.1,-,N/A,,Overcast,90,2013-04-11 22:45:00
5:56 PM,41.0,37.0,86,29.61,6.0,East,20.7,26.5,N/A,,Overcast,80,2013-04-11 22:56:00
6:54 PM,39.2,37.4,93,29.61,1.8,East,15.0,-,0.00,Rain,Light Rain,90,2013-04-11 23:54:00
6:55 PM,39.0,37.0,93,29.62,1.8,East,13.8,-,0.00,Rain,Light Rain,90,2013-04-11 23:55:00
7:05 PM,39.2,37.4,93,29.61,1.2,East,11.5,-,0.01,Rain,Light Rain,80,2013-04-12 00:05:00
7:22 PM,39.2,37.4,93,29.60,1.2,East,15.0,-,0.01,Rain,Light Rain,80,2013-04-12 00:22:00
7:25 PM,39.2,37.4,93,29.60,1.2,East,19.6,-,0.01,Rain,Light Rain,90,2013-04-12 00:25:00
7:35 PM,39.2,35.6,87,29.59,3.0,East,12.7,-,0.01,Rain,Light Rain,80,2013-04-12 00:35:00
7:56 PM,39.0,36.0,89,29.59,6.0,East,13.8,-,0.01,,Overcast,80,2013-04-12 00:56:00
8:08 PM,39.2,35.6,87,29.59,10.0,East,15.0,-,N/A,,Overcast,90,2013-04-12 01:08:00
8:56 PM,37.9,35.1,89,29.59,10.0,East,16.1,-,N/A,,Overcast,80,2013-04-12 01:56:00
9:56 PM,37.9,34.0,86,29.58,10.0,East,12.7,-,0.00,Rain,Light Rain,80,2013-04-12 02:56:00
10:52 PM,37.4,35.6,93,29.60,2.5,ENE,5.8,-,0.03,Rain,Light Rain,60,2013-04-12 03:52:00
10:56 PM,37.0,35.1,93,29.60,3.0,ENE,5.8,-,0.03,Rain,Light Rain,60,2013-04-12 03:56:00
11:16 PM,37.4,33.8,87,29.59,6.0,ENE,6.9,-,0.00,Rain,Light Rain,70,2013-04-12 04:16:00
11:48 PM,37.4,33.8,87,29.59,6.0,NE,5.8,-,0.00,,Overcast,50,2013-04-12 04:48:00
11:56 PM,37.0,34.0,89,29.59,5.0,ENE,6.9,-,0.00,,Overcast,70,2013-04-12 04:56:00